Morgantown, WV

1:50 PM EDT on September 24, 2017 (GMT -0400)
Morgantown Municipal-Hart

Weather History for KMGW - January, 2003

Change the Weather History Date:

Tuesday, January 7, 2003

  Actual Average Record
Temperature  
Mean Temperature 24 °F 31 °F  
Max Temperature 35 °F 39 °F 68 °F (1998)
Min Temperature 12 °F 24 °F -7 °F (2014)
Degree Days  
Heating Degree Days 42 34  
Month to date heating degree days 235  
Since 1 July heating degree days 2219  
Cooling Degree Days 0 0  
Month to date cooling degree days 0  
Year to date cooling degree days 0  
Moisture  
Dew Point 16 °F    
Average Humidity 74    
Maximum Humidity 93    
Minimum Humidity 57    
Precipitation  
Precipitation 0.01 in 0.09 in 0.95 in (1979)
Month to date precipitation 0.63  
Year to date precipitation 0.63  
Sea Level Pressure  
Sea Level Pressure 30.07 in    
Wind  
Wind Speed 8 mph (SW)    
Max Wind Speed 15 mph    
Max Gust Speed 23 mph    
Visibility 9 miles    
Events Snow    
T = Trace of Precipitation, MM = Missing Value Source: NWS Daily Summary

Daily Weather History Graph

Daily Weather History Graph

Search for Another Location

Airport or City:

Trip Planner

Search our weather history database for the weather conditions in past years. The results will help you decide how hot, cold, wet, or windy it might be!

Date:

Astronomy

Jan. 07, 2003 Rise Set
Actual Time 7:40 AM EST 5:11 PM EST
Civil Twilight 7:10 AM EST 5:41 PM EST
Nautical Twilight 6:37 AM EST 6:14 PM EST
Astronomical Twilight 6:04 AM EST 6:47 PM EST
Moon 11:02 AM EST (1/7) 10:17 PM EST (1/7)
Length of Visible Light 10h 30m
Length of Day
9h 30m
Waxing Crescent, 24% of the Moon is Illuminated
Jan 7
Waxing Crescent
Jan 10
First Quarter
Jan 18
Full
Jan 25
Last Quarter
Feb 1
New

Hourly Weather History & Observations

Time (EST) Temp. Windchill Dew Point Humidity Pressure Visibility Wind Dir Wind Speed Gust Speed Precip Events Conditions
12:53 AM 21.0 °F 13.4 °F 17.1 °F 85% 30.23 in 5.0 mi West 5.8 mph - 0.00 in Snow Light Snow
1:53 AM 19.9 °F 11.1 °F 16.0 °F 85% 30.25 in 2.0 mi WNW 6.9 mph - 0.00 in Snow Light Snow
2:00 AM 19.4 °F 11.5 °F 17.6 °F 93% 30.20 in 1.5 mi West 5.8 mph - 0.00 in Snow Light Snow
2:04 AM 19.4 °F 10.4 °F 17.6 °F 93% 30.20 in 3.0 mi West 6.9 mph - 0.00 in Snow Light Snow
2:53 AM 19.9 °F 13.4 °F 12.0 °F 71% 30.26 in 9.0 mi West 4.6 mph - 0.00 in Snow Light Snow
3:53 AM 18.0 °F 8.7 °F 10.9 °F 74% 30.27 in 9.0 mi West 6.9 mph - 0.00 in Snow Light Snow
4:53 AM 16.0 °F 8.8 °F 10.0 °F 77% 30.27 in 9.0 mi WSW 4.6 mph - 0.00 in Snow Light Snow
5:09 AM 15.8 °F - 10.4 °F 79% 30.21 in 9.0 mi North - - 0.00 in Snow Light Snow
5:19 AM 15.8 °F - 10.4 °F 79% 30.21 in 9.0 mi North - - 0.00 in Snow Light Snow
5:53 AM 16.0 °F - 10.0 °F 77% 30.28 in 9.0 mi North - - 0.00 in Snow Light Snow
6:53 AM 14.0 °F 2.9 °F 10.0 °F 84% 30.28 in 9.0 mi SSW 8.1 mph - 0.00 in Snow Light Snow
7:53 AM 12.9 °F 1.6 °F 9.0 °F 84% 30.28 in 10.0 mi SSW 8.1 mph - N/A   Clear
8:53 AM 15.1 °F 3.3 °F 10.0 °F 80% 30.26 in 10.0 mi SSW 9.2 mph - N/A   Clear
9:53 AM 18.0 °F 6.9 °F 12.0 °F 78% 30.25 in 10.0 mi SW 9.2 mph - N/A   Clear
10:39 AM 19.4 °F 7.2 °F 12.2 °F 74% 30.16 in 10.0 mi SW 11.5 mph - N/A   Mostly Cloudy
10:53 AM 19.9 °F 7.9 °F 12.9 °F 74% 30.20 in 10.0 mi SW 11.5 mph - N/A   Overcast
11:53 AM 21.0 °F 12.4 °F 16.0 °F 81% 30.14 in 10.0 mi SW 6.9 mph 16.1 mph N/A   Overcast
12:53 PM 24.1 °F 14.4 °F 18.0 °F 77% 30.07 in 10.0 mi SSW 9.2 mph - N/A   Overcast
1:53 PM 26.1 °F 16.2 °F 18.0 °F 71% 30.03 in 10.0 mi SW 10.4 mph - 0.01 in   Mostly Cloudy
2:53 PM 27.0 °F 16.7 °F 18.0 °F 69% 29.96 in 10.0 mi SSW 11.5 mph 18.4 mph N/A   Scattered Clouds
3:53 PM 28.0 °F 18.6 °F 19.0 °F 69% 29.93 in 10.0 mi SW 10.4 mph 19.6 mph N/A   Overcast
4:53 PM 28.0 °F 18.6 °F 19.0 °F 69% 29.88 in 10.0 mi SSW 10.4 mph 18.4 mph N/A   Overcast
5:53 PM 28.9 °F 20.4 °F 19.9 °F 69% 29.86 in 10.0 mi SW 9.2 mph 17.3 mph N/A   Overcast
6:53 PM 30.9 °F 20.2 °F 19.9 °F 64% 29.81 in 10.0 mi SW 15.0 mph 20.7 mph N/A   Overcast
7:53 PM 32.0 °F 23.6 °F 19.9 °F 61% 29.79 in 10.0 mi SW 10.4 mph - N/A   Overcast
8:53 PM 33.1 °F 24.4 °F 19.9 °F 59% 29.75 in 10.0 mi SW 11.5 mph 17.3 mph N/A   Overcast
9:53 PM 34.0 °F 24.6 °F 21.0 °F 59% 29.71 in 10.0 mi SW 13.8 mph 23.0 mph N/A   Overcast
10:53 PM 35.1 °F 27.9 °F 21.0 °F 57% 29.71 in 10.0 mi SW 9.2 mph 18.4 mph N/A   Overcast
11:53 PM 35.1 °F 27.9 °F 23.0 °F 61% 29.69 in 10.0 mi SW 9.2 mph 17.3 mph N/A   Overcast